Regional Weather Roundup
Issued by NWS Nashville, TN

Home | Current Version | Previous Version | Text Only | Print | Product List | Glossary On
Versions: 1 2 3 4 5 6 7 8 9 10 11 12 13 14 15 16 17 18 19 20 21 22 23 24 25 26 27 28 29 30 31 32 33 34 35 36 37 38 39 40 41 42 43 44 45 46 47 48 49 50
000
ASUS44 KOHX 031110
RWROHX
MIDDLE TENNESSEE HOURLY WEATHER ROUNDUP
NATIONAL WEATHER SERVICE NASHVILLE TN
500 AM CST SAT DEC 03 2016

NOTE: "FAIR" INDICATES FEW OR NO CLOUDS BELOW 12,000 FEET WITH
NO SIGNIFICANT WEATHER AND/OR OBSTRUCTIONS TO VISIBILITY.

* THESE REPORTS ARE NOT UNDER NWS QUALITY CONTROL AND MAY NOT
  REPORT WEATHER SUCH AS PRECIPITATION AND FOG.


TNZ005>011-023>034-057-059-062>066-078-080-031200
...NORTHERN MIDDLE TENNESSEE...

CITY           SKY/WX    TMP DP  RH WIND       PRES   REMARKS
CROSSVILLE     CLOUDY    32  27  81 NE3       30.28
LEBANON        CLOUDY    34  31  89 CALM      30.32R
NASHVILLE      CLOUDY    38  30  73 N5        30.35R WCI  34
PORTLAND       CLEAR     32  30  93 CALM      30.34R
SMYRNA         PTCLDY    36  31  82 N3        30.35R
SPRINGFIELD    CLEAR     34  30  86 CALM      30.34R
WEST NASHVILLE CLEAR     36  30  80 CALM      30.35S
$$
TNZ056-058-060-061-075>077-079-093>097-031200
...SOUTHERN MIDDLE TENNESSEE...

CITY           SKY/WX    TMP DP  RH WIND       PRES   REMARKS
COLUMBIA       CLEAR    N/A N/A N/A CALM      30.32R
FAYETTEVILLE   PTCLDY    41  32  70 N3        30.31R
MCMINNVILLE    CLEAR     36  30  80 CALM      30.30S
MURFREESBORO   PTCLDY    37  31  79 N3        30.33S
SHELBYVILLE    CLEAR     37  34  87 NW3       30.33S
TULLAHOMA      CLEAR     37  28  70 CALM      30.31R
WINCHESTER     CLEAR     34  30  86 CALM      30.31R
$$


...KEY TO REMARKS...
VSB - VISIBILITY IN MILES
WCI - WIND CHILL INDEX
HX  - HEAT INDEX




USA.gov is the U.S. government's official web portal to all federal, state and local government web resources and services.